ALMASAT-1 (38078 NORAD) Tracking and Keplerian Element Data

This shows tracking and keplerian element data for the satellite.

Feedback or suggestion? Click here.




ElementValue
Catalog38078
NameALMASAT-1
Epoch Orbit44635
Epoch Day114.24750933
Epoch Year2020
RAAN79.3451
Inclination69.4001
Eccentricity0.001884
Argument of Perigee152.007
Mean Anonmoly337.0324
Mean Motion16.28722871
Decay Rate0.01726645
L11 38078U 12006B 20114.24750933 .01726645 46175-5 41316-3 0 9993
L22 38078 69.4001 79.3451 0018840 152.0070 337.0324 16.28722871446351



Live tracking and technical data element details for ALMASAT-1 (NORAD 38078). ALMASAT-1 can be tracked NOW for your location showing map with azimuth and elevation plus other details from your city location.







IsCatalogInMostPopularTable: catalog: 38078, numindb: 375
Update: records affected: 1



GetName: 38078 ALMASAT-1

Hit Count: updated at: Mon, 28 Nov 2022 05:03:37 GMT